• In Germany
  • List of Countries
  • For 7 days
  • Water Temperature
  • Satellite Maps
  • Weather Map
  • Weather Widgets
  • user-avatar
    Login

    Hourly Weather Prutz

    Today, 24 February, Saturday

    Time Temperature Precipitation Wind Pressure Humidity
    00:00 -7°C° 0 mm 2 mps 625 mmHg 81%
    01:00 -7°C° 0 mm 2 mps 625 mmHg 80%
    02:00 -7°C° 0 mm 2 mps 625 mmHg 81%
    03:00 -7°C° 0 mm 2 mps 625 mmHg 81%
    04:00 -6°C° 0 mm 1 mps 625 mmHg 81%
    05:00 -6°C° 0 mm 1 mps 625 mmHg 82%
    06:00 -6°C° 0 mm 1 mps 625 mmHg 82%
    07:00 -6°C° 0 mm 1 mps 625 mmHg 82%
    08:00 -3°C° 0 mm 1 mps 626 mmHg 83%
    09:00 -1°C° 0 mm 1 mps 627 mmHg 83%
    10:00 +1°C° 0 mm 1 mps 628 mmHg 84%
    11:00 +2°C° 0 mm 1 mps 628 mmHg 86%
    12:00 +2°C° 0 mm 1 mps 628 mmHg 89%
    13:00 +2°C° 0 mm 1 mps 628 mmHg 91%
    14:00 +2°C° 0.1 mm 1 mps 628 mmHg 92%
    15:00 +1°C° 0.1 mm 2 mps 627 mmHg 92%
    16:00 +1°C° 0.1 mm 2 mps 627 mmHg 92%
    17:00 -1°C° 0.1 mm 2 mps 627 mmHg 93%
    18:00 -3°C° 0.1 mm 2 mps 627 mmHg 94%
    19:00 -4°C° 0.1 mm 2 mps 627 mmHg 95%
    20:00 -2°C° 0.1 mm 1 mps 627 mmHg 95%
    21:00 -3°C° 0.1 mm 1 mps 627 mmHg 95%
    22:00 -4°C° 0.1 mm 1 mps 627 mmHg 95%
    23:00 -4°C° 0.1 mm 1 mps 627 mmHg 95%

    Tomorrow, 25 February, Sunday

    Time Temperature Precipitation Wind Pressure Humidity
    00:00 -4°C° 0.1 mm 1 mps 627 mmHg 95%
    01:00 -6°C° 0.1 mm 1 mps 627 mmHg 95%
    02:00 -6°C° 0.1 mm 1 mps 627 mmHg 95%
    03:00 -6°C° 0.1 mm 1 mps 627 mmHg 94%
    04:00 -7°C° 0.1 mm 1 mps 626 mmHg 94%
    05:00 -7°C° 0.1 mm 1 mps 626 mmHg 94%
    06:00 -8°C° 0.1 mm 1 mps 626 mmHg 94%
    07:00 -8°C° 0.1 mm 1 mps 626 mmHg 93%
    08:00 -9°C° 0.1 mm 2 mps 627 mmHg 92%
    09:00 -8°C° 0.1 mm 2 mps 627 mmHg 90%
    10:00 -8°C° 0.1 mm 2 mps 627 mmHg 89%
    11:00 -7°C° 0.1 mm 2 mps 627 mmHg 88%
    12:00 -7°C° 0.1 mm 2 mps 627 mmHg 87%
    13:00 -8°C° 0.1 mm 3 mps 627 mmHg 86%
    14:00 -8°C° 0.2 mm 3 mps 626 mmHg 87%
    15:00 -9°C° 0.2 mm 3 mps 626 mmHg 87%
    16:00 -10°C° 0.2 mm 3 mps 626 mmHg 87%
    17:00 -10°C° 0.1 mm 2 mps 626 mmHg 89%
    18:00 -13°C° 0.1 mm 2 mps 625 mmHg 91%
    19:00 -14°C° 0.1 mm 2 mps 625 mmHg 93%
    20:00 -15°C° 0.1 mm 2 mps 625 mmHg 93%
    21:00 -14°C° 0.1 mm 1 mps 625 mmHg 93%
    22:00 -15°C° 0.1 mm 1 mps 625 mmHg 93%
    23:00 -15°C° 0.1 mm 1 mps 625 mmHg 93%

    Day after tomorrow, 26 February, Monday

    Time Temperature Precipitation Wind Pressure Humidity
    00:00 -16°C° 0.1 mm 1 mps 624 mmHg 93%
    01:00 -16°C° 0.1 mm 1 mps 624 mmHg 93%
    02:00 -16°C° 0.1 mm 1 mps 624 mmHg 92%
    03:00 -17°C° 0.1 mm 1 mps 624 mmHg 92%
    04:00 -17°C° 0.1 mm 1 mps 623 mmHg 92%
    05:00 -17°C° 0.1 mm 1 mps 623 mmHg 92%
    06:00 -17°C° 0.1 mm 1 mps 623 mmHg 92%
    07:00 -18°C° 0.1 mm 1 mps 623 mmHg 92%
    08:00 -17°C° 0.1 mm 1 mps 623 mmHg 89%
    09:00 -17°C° 0.1 mm 2 mps 624 mmHg 87%
    10:00 -16°C° 0.1 mm 2 mps 624 mmHg 85%
    11:00 -16°C° 0.1 mm 2 mps 624 mmHg 84%
    12:00 -15°C° 0.1 mm 2 mps 624 mmHg 83%
    13:00 -14°C° 0.1 mm 2 mps 624 mmHg 82%
    14:00 -15°C° 0.1 mm 3 mps 624 mmHg 83%
    15:00 -16°C° 0.1 mm 3 mps 623 mmHg 84%
    16:00 -16°C° 0.1 mm 3 mps 623 mmHg 84%
    17:00 -16°C° 0.1 mm 2 mps 623 mmHg 87%
    18:00 -17°C° 0.1 mm 2 mps 623 mmHg 90%
    19:00 -18°C° 0.1 mm 2 mps 622 mmHg 93%
    20:00 -19°C° 0.1 mm 2 mps 622 mmHg 93%
    21:00 -17°C° 0.1 mm 1 mps 622 mmHg 93%
    22:00 -18°C° 0.1 mm 1 mps 622 mmHg 93%
    23:00 -18°C° 0 mm 1 mps 622 mmHg 92%

    27 February, Tuesday

    Time Temperature Precipitation Wind Pressure Humidity
    00:00 -19°C° 0 mm 1 mps 622 mmHg 90%
    01:00 -19°C° 0 mm 1 mps 621 mmHg 89%
    02:00 -19°C° 0 mm 1 mps 621 mmHg 89%
    03:00 -20°C° 0 mm 1 mps 621 mmHg 88%
    04:00 -20°C° 0 mm 1 mps 620 mmHg 87%
    05:00 -20°C° 0 mm 1 mps 620 mmHg 87%
    06:00 -20°C° 0 mm 1 mps 620 mmHg 86%
    07:00 -21°C° 0 mm 1 mps 620 mmHg 86%
    08:00 -19°C° 0 mm 1 mps 621 mmHg 82%
    09:00 -17°C° 0 mm 1 mps 621 mmHg 77%
    10:00 -15°C° 0 mm 1 mps 622 mmHg 73%
    11:00 -14°C° 0 mm 1 mps 622 mmHg 72%
    12:00 -13°C° 0 mm 1 mps 622 mmHg 72%
    13:00 -12°C° 0 mm 1 mps 622 mmHg 71%
    14:00 -14°C° 0.1 mm 2 mps 622 mmHg 74%
    15:00 -14°C° 0.1 mm 2 mps 622 mmHg 78%
    16:00 -13°C° 0.1 mm 2 mps 622 mmHg 81%
    17:00 -13°C° 0.1 mm 1 mps 622 mmHg 85%
    18:00 -14°C° 0.1 mm 1 mps 621 mmHg 89%
    19:00 -16°C° 0.1 mm 1 mps 621 mmHg 94%
    20:00 -17°C° 0 mm 1 mps 621 mmHg 93%
    21:00 -17°C° 0 mm 1 mps 621 mmHg 92%
    22:00 -18°C° 0 mm 1 mps 621 mmHg 91%
    23:00 -18°C° 0 mm 1 mps 621 mmHg 89%

    28 February, Wednesday

    Time Temperature Precipitation Wind Pressure Humidity
    00:00 -20°C° 0 mm 2 mps 621 mmHg 87%
    01:00 -20°C° 0 mm 2 mps 621 mmHg 86%
    02:00 -20°C° 0 mm 2 mps 621 mmHg 85%
    03:00 -20°C° 0 mm 2 mps 621 mmHg 84%
    04:00 -21°C° 0 mm 2 mps 621 mmHg 83%
    05:00 -21°C° 0 mm 2 mps 621 mmHg 83%
    06:00 -21°C° 0 mm 2 mps 621 mmHg 82%
    07:00 -21°C° 0 mm 2 mps 621 mmHg 82%
    08:00 -18°C° 0 mm 2 mps 622 mmHg 78%
    09:00 -14°C° 0 mm 1 mps 623 mmHg 74%
    10:00 -11°C° 0 mm 1 mps 624 mmHg 71%
    11:00 -10°C° 0 mm 1 mps 624 mmHg 69%
    12:00 -10°C° 0 mm 2 mps 624 mmHg 67%
    13:00 -9°C° 0 mm 2 mps 624 mmHg 65%
    14:00 -9°C° 0 mm 2 mps 624 mmHg 67%
    15:00 -9°C° 0 mm 2 mps 624 mmHg 68%
    16:00 -8°C° 0 mm 2 mps 624 mmHg 70%
    17:00 -10°C° 0 mm 2 mps 624 mmHg 75%
    18:00 -12°C° 0 mm 2 mps 623 mmHg 80%
    19:00 -13°C° 0 mm 2 mps 623 mmHg 85%
    20:00 -14°C° 0 mm 2 mps 623 mmHg 85%
    21:00 -15°C° 0 mm 3 mps 623 mmHg 84%
    22:00 -15°C° 0 mm 3 mps 624 mmHg 84%
    23:00 -15°C° 0 mm 3 mps 623 mmHg 83%

    1 March, Thursday

    Time Temperature Precipitation Wind Pressure Humidity
    00:00 -14°C° 0 mm 3 mps 623 mmHg 82%
    01:00 -15°C° 0 mm 4 mps 623 mmHg 82%
    02:00 -15°C° 0 mm 4 mps 623 mmHg 82%
    03:00 -14°C° 0 mm 4 mps 623 mmHg 82%
    04:00 -14°C° 0 mm 4 mps 622 mmHg 82%
    05:00 -14°C° 0 mm 4 mps 622 mmHg 82%
    06:00 -12°C° 0 mm 4 mps 622 mmHg 82%
    07:00 -12°C° 0 mm 4 mps 622 mmHg 82%
    08:00 -10°C° 0 mm 4 mps 622 mmHg 82%
    09:00 -8°C° 0 mm 4 mps 622 mmHg 81%
    10:00 -5°C° 0 mm 4 mps 622 mmHg 80%
    11:00 -4°C° 0.1 mm 4 mps 622 mmHg 81%
    12:00 -3°C° 0.1 mm 4 mps 622 mmHg 82%
    13:00 -1°C° 0.1 mm 3 mps 622 mmHg 83%
    14:00 -1°C° 0.1 mm 3 mps 622 mmHg 84%
    15:00 0°C° 0.1 mm 3 mps 621 mmHg 86%
    16:00 0°C° 0.1 mm 3 mps 621 mmHg 87%
    17:00 -1°C° 0 mm 3 mps 620 mmHg 87%
    18:00 -2°C° 0 mm 3 mps 620 mmHg 88%
    19:00 -4°C° 0 mm 3 mps 620 mmHg 88%
    20:00 -4°C° 0 mm 3 mps 620 mmHg 87%
    21:00 -4°C° 0 mm 3 mps 620 mmHg 86%
    22:00 -4°C° 0 mm 3 mps 619 mmHg 85%
    23:00 -4°C° 0 mm 3 mps 619 mmHg 85%
    Show more